User: anonymous   Login
Location: Unspecified
(0.0000°N, 0.0000°E)
Time: 09:13:29
(UTC+01:00)
Language:

GPS 2-05 Rocket1 - Orbit

View from above orbital plane
View from above orbital plane
View from above satellite
View from above satellite

Ground track
Ground track

The orbit data is extracted from the following two-line orbital elements,

1 20362U 89097B   15084.42618068  .00018228  00000-0  50793-3 0  9997
2 20362 035.6128 078.3612 0089889 087.6829 037.0169 15.31898165373881
Epoch (UTC): 25 March 2015 10:13:42
Eccentricity: 0.0089889
inclination: 35.6128°
perigee height: 408 km
apogee height: 532 km
right ascension of ascending node: 78.3612°
argument of perigee: 87.6829°
revolutions per day: 15.31898165
mean anomaly at epoch: 37.0169°
orbit number at epoch: 37388

The dashed part of the orbit path shows where the satellite is in the earth's shadow,  

DLR